Weather History for Kalaeloa, HI

Change the Weather History Date:

Friday, December 21, 2012

  Actual Average (PHNL) Record (PHNL)
Temperature  
Mean Temperature 74 °F 74 °F  
Max Temperature 80 °F 81 °F 87 °F (1995)
Min Temperature 68 °F 68 °F 58 °F (1962)
Degree Days  
Heating Degree Days 0 0  
Month to date heating degree days 0  
Since 1 July heating degree days 0  
Cooling Degree Days 9 9  
Month to date cooling degree days 213  
Year to date cooling degree days 4539  
Growing Degree Days 24 (Base 50)    
Moisture  
Dew Point 61 °F    
Average Humidity 67    
Maximum Humidity 78    
Minimum Humidity 50    
Precipitation  
Precipitation 0.02 in 0.12 in 1.18 in (1946)
Month to date precipitation 2.11  
Year to date precipitation 15.97  
Snow  
Snow 0.00 in - - ()
Month to date snowfall  
Since 1 July snowfall  
Snow Depth -    
Sea Level Pressure  
Sea Level Pressure 30.05 in    
Wind  
Wind Speed 6 mph (ENE)    
Max Wind Speed 15 mph    
Max Gust Speed 23 mph    
Visibility 10 miles    
Events Rain    
T = Trace of Precipitation, MM = Missing Value Source: NWS Daily Summary

Daily Weather History Graph

Daily Weather History Graph

Search for Another Location

Airport:

Trip Planner

Search our weather history database for the weather conditions in past years. The results will help you decide how hot, cold, wet, or windy it might be!

Date:

Astronomy

Dec. 21, 2012 Rise Set
Actual Time 7:05 AM HST 5:55 PM HST
Civil Twilight 6:41 AM HST 6:20 PM HST
Nautical Twilight 6:13 AM HST 6:47 PM HST
Astronomical Twilight 5:46 AM HST 7:15 PM HST
Moon 1:23 PM HST (12/21) 1:32 AM HST (12/21)
Length of Visible Light 11h 38m
Length of Day
10h 50m
Waxing Gibbous, 66% of the Moon is Illuminated
Dec 21
Waxing Gibbous
Dec 28
Full
Jan 4
Last Quarter
Jan 11
New
Jan 18
First Quarter

Hourly Weather History & Observations

Time (HST) Temp. Heat Index Dew Point Humidity Pressure Visibility Wind Dir Wind Speed Gust Speed Precip Events Conditions
12:53 AM 70.0 °F - 60.1 °F 71% 30.06 in 10.0 mi ENE 4.6 mph - N/A   Clear
1:13 AM 71.6 °F - 59.0 °F 64% 30.04 in 10.0 mi ENE 5.8 mph - N/A   Partly Cloudy
1:53 AM 70.0 °F - 59.0 °F 68% 30.05 in 10.0 mi ENE 4.6 mph - N/A   Clear
2:53 AM 69.1 °F - 59.0 °F 70% 30.05 in 10.0 mi Variable 4.6 mph - N/A   Clear
3:53 AM 69.1 °F - 60.1 °F 73% 30.05 in 10.0 mi ENE 4.6 mph - N/A   Clear
4:53 AM 69.1 °F - 61.0 °F 75% 30.04 in 10.0 mi Variable 3.5 mph - N/A   Clear
5:53 AM 68.0 °F - 61.0 °F 78% 30.04 in 10.0 mi ENE 4.6 mph - N/A   Clear
6:53 AM 69.1 °F - 60.1 °F 73% 30.06 in 10.0 mi NE 4.6 mph - N/A   Clear
7:44 AM 69.8 °F - 60.8 °F 73% 30.05 in 10.0 mi East 3.5 mph - N/A   Partly Cloudy
7:53 AM 70.0 °F - 61.0 °F 73% 30.07 in 10.0 mi ENE 3.5 mph - N/A   Partly Cloudy
9:53 AM 78.1 °F - 59.0 °F 52% 30.09 in 10.0 mi East 9.2 mph 18.4 mph N/A   Unknown
11:53 AM 77.0 °F - 62.1 °F 60% 30.07 in 10.0 mi Variable 6.9 mph 17.3 mph 0.00 in   Unknown
12:53 PM 80.1 °F 80.9 °F 60.1 °F 50% 30.03 in 10.0 mi East 12.7 mph 21.9 mph N/A   Partly Cloudy
1:53 PM 78.1 °F - 62.1 °F 58% 30.02 in 10.0 mi ENE 11.5 mph 19.6 mph 0.01 in   Overcast
2:53 PM 75.9 °F - 62.1 °F 62% 30.01 in 10.0 mi East 15.0 mph 23.0 mph N/A   Mostly Cloudy
3:10 PM 71.6 °F - 64.4 °F 78% 30.00 in 2.5 mi Variable 4.6 mph 17.3 mph 0.00 in Rain Light Rain
3:17 PM 73.4 °F - 64.4 °F 73% 30.00 in 10.0 mi Variable 5.8 mph 18.4 mph 0.00 in   Overcast
4:53 PM 75.9 °F - 61.0 °F 60% 30.02 in 10.0 mi ENE 9.2 mph 17.3 mph N/A   Scattered Clouds
5:53 PM 73.9 °F - 61.0 °F 64% 30.03 in 10.0 mi ENE 8.1 mph 20.7 mph 0.01 in   Clear
6:53 PM 73.0 °F - 59.0 °F 61% 30.06 in 10.0 mi East 11.5 mph 19.6 mph N/A   Clear
7:24 PM 73.4 °F - 60.8 °F 65% 30.05 in 10.0 mi Variable 6.9 mph - N/A   Partly Cloudy
7:53 PM 72.0 °F - 60.1 °F 66% 30.07 in 10.0 mi ENE 6.9 mph - N/A   Clear
8:53 PM 72.0 °F - 59.0 °F 64% 30.08 in 10.0 mi Variable 6.9 mph - N/A   Clear
9:53 PM 72.0 °F - 60.1 °F 66% 30.09 in 10.0 mi ENE 6.9 mph - N/A   Clear
10:53 PM 72.0 °F - 60.1 °F 66% 30.10 in 10.0 mi East 5.8 mph - N/A   Clear
11:53 PM 71.1 °F - 60.1 °F 68% 30.10 in 10.0 mi ENE 5.8 mph - N/A   Clear